This demonstration page uses our WeatherBlox Daily Observations layout. Learn more.

39.08367, -84.50855

Hourly Observations for January 15, 2019

Temp ( °F °C ) Dew Point ( °F °C ) Humidity (%) Winds ( mph kmh ) Pressure ( in mb ) Visibility ( mi km ) Precip ( " mm )
12:05 am 00:05 Clear with Mist and Fog 18 -7.8 15 -9.4 88 88 Calm 30.36 1028 3 4.828032 0 0
12:53 am 00:53 Clear with Mist and Fog 17 -8.3 14 -10 88 88 Calm 30.33 1027 3 4.828032 0 0
1:53 am 01:53 Clear with Mist and Fog 17 -8.3 14 -10 88 88 Calm 30.33 1027 4 6.437376 0 0
2:20 am 02:20 Partly Cloudy with Mist and Fog 16 -8.9 13 -10.6 88 88 NE 3 6 30.36 1028 1.25 2.01168 0 0
2:27 am 02:27 Mostly Cloudy with Freezing Fog 16 -8.9 13 -10.6 88 88 NNE 3 6 30.36 1028 0.5 0.804672 0 0
2:32 am 02:32 Mostly Cloudy with Mist and Fog 15 -9.4 13 -10.6 91 91 Calm 30.36 1028 2 3.218688 0 0
2:39 am 02:39 Mostly Cloudy with Mist and Fog 16 -8.9 13 -10.6 88 88 Calm 30.36 1028 4 6.437376 0 0
2:53 am 02:53 Cloudy with Mist and Fog 16 -8.9 14 -10 92 92 Calm 30.33 1027 2.5 4.02336 0 0
3:06 am 03:06 Mostly Cloudy with Mist and Fog 16 -8.9 13 -10.6 88 88 Calm 30.36 1028 3 4.828032 0 0
3:53 am 03:53 Cloudy with Mist and Fog 16 -8.9 14 -10 92 92 Calm 30.33 1027 3 4.828032 0 0
4:05 am 04:05 Cloudy with Mist and Fog 15 -9.4 12 -11.1 88 88 E 3 6 30.36 1028 1.75 2.816352 0 0
4:12 am 04:12 Cloudy with Freezing Fog 16 -8.9 14 -10 92 92 NE 3 6 30.36 1028 0.25 0.402336 0 0
4:53 am 04:53 Mostly Cloudy with Freezing Fog 18 -7.8 16 -8.9 92 92 NE 3 6 30.33 1027 0.25 0.402336 0 0
5:53 am 05:53 Mostly Cloudy with Freezing Fog 20 -6.7 17 -8.3 89 89 Calm 30.33 1027 0.25 0.402336 0 0
6:08 am 06:08 Cloudy with Freezing Fog 20 -6.7 18 -7.8 92 92 NW 7 11 30.36 1028 0.5 0.804672 0 0
6:13 am 06:13 Cloudy with Mist and Fog 21 -6.1 18 -7.8 88 88 WNW 3 6 30.36 1028 2 3.218688 0 0
6:20 am 06:20 Cloudy with Mist and Fog 21 -6.1 18 -7.8 88 88 Calm 30.36 1028 6 9.656064 0 0
6:53 am 06:53 Cloudy with Mist and Fog 21 -6.1 18 -7.8 88 88 Calm 30.33 1027 6 9.656064 0 0
7:53 am 07:53 Cloudy with Mist and Fog 22 -5.6 18 -7.8 85 85 Calm 30.33 1027 4 6.437376 0 0
8:53 am 08:53 Cloudy with Mist and Fog 22 -5.6 20 -6.7 92 92 Calm 30.33 1027 3 4.828032 0 0
9:53 am 09:53 Cloudy with Mist and Fog 24 -4.4 22 -5.6 91 91 Calm 30.36 1028 4 6.437376 0 0
10:53 am 10:53 Cloudy with Mist and Fog 26 -3.3 23 -5 88 88 S 6 9 30.36 1028 5 8.04672 0 0
11:53 am 11:53 Cloudy with Mist and Fog 27 -2.8 24 -4.4 89 89 S 6 9 30.33 1027 4 6.437376 0 0
12:04 pm 12:04 Cloudy with Mist and Fog 27 -2.8 24 -4.4 89 89 S 6 9 30.36 1028 4 6.437376 0 0
12:53 pm 12:53 Cloudy with Mist and Fog 29 -1.7 25 -3.9 85 85 SSW 7 11 30.3 1026 5 8.04672 0 0
1:12 pm 13:12 Cloudy with Mist and Fog 29 -1.7 25 -3.9 85 85 WSW 7 11 30.33 1027 6 9.656064 0 0
1:51 pm 13:51 Cloudy with Haze 30 -1 25 -4 80 80 WSW 9 15 30.3 1026 5 8.04672 0 0
1:53 pm 13:53 Cloudy with Haze 30 -1.1 24 -4.4 79 79 WSW 9 15 30.27 1025 5 8.04672 0 0
2:53 pm 14:53 Cloudy with Haze 30 -1.1 25 -3.9 82 82 WSW 8 13 30.27 1025 6 9.656064 0 0
3:53 pm 15:53 Cloudy with Haze 31 -0.6 26 -3.3 82 82 SW 9 15 30.27 1025 3 4.828032 0.001 0.001
4:53 pm 16:53 Cloudy with Mist and Fog 31 -0.6 27 -2.8 85 85 SSW 9 15 30.24 1024 3 4.828032 0 0
5:53 pm 17:53 Cloudy with Mist and Fog 31 -0.6 27 -2.8 85 85 SSW 8 13 30.24 1024 3 4.828032 0 0
6:53 pm 18:53 Cloudy with Haze 32 0 27 -2.8 82 82 SSW 10 17 30.24 1024 5 8.04672 0 0
7:53 pm 19:53 Cloudy with Haze 32 0 27 -2.8 82 82 SSW 8 13 30.21 1023 4 6.437376 0 0
8:53 pm 20:53 Cloudy with Haze 32 0 27 -2.8 82 82 SW 12 19 30.21 1023 4 6.437376 0 0
9:53 pm 21:53 Cloudy with Haze 33 0.6 28 -2.2 82 82 SW 10 17 30.24 1024 4 6.437376 0 0
10:53 pm 22:53 Cloudy 33 0.6 28 -2.2 82 82 SSW 13 20 30.21 1023 7 11.265408 0 0
11:53 pm 23:53 Cloudy 32 0 29 -1.7 88 88 SSW 10 17 30.18 1022 8 12.874752 0 0

Powered by AerisWeather